FW5313 Weather Reports


Display with metric or nautical units.
time (UTC)temp
F
wind
direction
speed
MPH
gust
MPH
rain 1hr
in
rain 24hr
in
rain mn
in
humidity
%
barometer
mb
20260904123545 60 0 0.0 1.0 0.00 0.01 0.01 95 1011.7
20260904123102 60 0 0.0 1.0 0.00 0.01 0.01 96 1011.5
20260904122545 60 0 0.0 1.0 0.00 0.01 0.01 96 1011.6
20260904122045 59 0 0.0 0.0 0.00 0.01 0.01 96 1011.6
20260904121556 59 0 0.0 0.0 0.00 0.01 0.01 96 1011.7
20260904121044 59 0 0.0 1.0 0.00 0.01 0.01 96 1011.6
20260904120547 59 0 0.0 1.0 0.00 0.01 0.01 96 1011.6
20260904120058 59 0 0.0 1.0 0.00 0.01 0.01 96 1011.6
20260904115545 59 0 0.0 0.0 0.00 0.02 0.01 96 1011.5
20260904115045 59 0 0.0 0.0 0.00 0.02 0.01 96 1011.6
20260904114558 59 0 0.0 0.0 0.00 0.02 0.01 96 1011.5
20260904114045 59 0 0.0 0.0 0.00 0.02 0.01 95 1011.5
20260904113545 59 0 0.0 0.0 0.00 0.02 0.01 95 1011.5
20260904113058 59 0 0.0 1.0 0.00 0.02 0.01 95 1011.5
20260904112542 60 0 0.0 1.0 0.00 0.02 0.01 95 1011.3
20260904112049 59 0 0.0 1.0 0.00 0.02 0.01 95 1011.3
20260904111611 59 0 0.0 1.0 0.00 0.02 0.01 95 1011.3
20260904111044 59 95 0.0 0.0 0.00 0.02 0.01 95 1011.3
20260904110546 59 0 0.0 1.0 0.00 0.02 0.01 95 1011.3
20260904105545 59 0 0.0 0.0 0.00 0.02 0.01 95 1011.2
20260904105045 59 0 0.0 0.0 0.00 0.02 0.01 96 1011.2
20260904104600 59 0 0.0 0.0 0.00 0.02 0.01 96 1011.1
20260904104044 59 0 0.0 0.0 0.00 0.02 0.01 95 1011.2
20260904103544 59 0 0.0 0.0 0.00 0.02 0.01 95 1011.2
20260904103056 59 0 0.0 0.0 0.00 0.02 0.01 94 1011.1
20260904102545 59 0 0.0 1.0 0.00 0.02 0.01 94 1011.1
20260904102044 60 0 0.0 1.0 0.00 0.02 0.01 94 1010.9
20260904101600 60 0 0.0 1.0 0.00 0.02 0.01 93 1011.0
20260904101047 60 0 0.0 1.0 0.00 0.02 0.01 94 1010.9
20260904100545 60 0 0.0 1.0 0.00 0.02 0.01 94 1010.9
20260904100103 60 0 0.0 1.0 0.00 0.02 0.01 94 1010.9
20260904095545 60 95 0.0 1.0 0.00 0.02 0.01 94 1010.9
20260904095046 60 0 0.0 1.0 0.00 0.02 0.01 94 1010.8
20260904094611 59 0 0.0 1.0 0.00 0.02 0.01 94 1010.8
20260904094044 59 95 0.0 0.0 0.00 0.02 0.01 94 1010.8
20260904093547 59 0 0.0 1.0 0.00 0.02 0.01 94 1010.8
20260904093103 60 0 0.0 1.0 0.01 0.02 0.01 94 1010.7
20260904092544 59 0 0.0 0.0 0.01 0.02 0.01 94 1010.7
20260904092043 59 0 0.0 1.0 0.01 0.02 0.01 94 1010.6
20260904091601 60 0 0.0 1.0 0.01 0.02 0.01 94 1010.6
20260904091044 59 0 0.0 1.0 0.01 0.02 0.01 94 1010.5
20260904090544 59 0 0.0 0.0 0.01 0.02 0.01 93 1010.6
20260904090101 59 0 0.0 0.0 0.01 0.02 0.01 93 1010.6
20260904085545 59 0 0.0 0.0 0.01 0.03 0.01 93 1010.5
20260904085045 59 0 0.0 0.0 0.01 0.03 0.01 93 1010.5
20260904084558 59 0 0.0 1.0 0.01 0.03 0.01 93 1010.6
20260904084046 59 0 0.0 1.0 0.01 0.03 0.01 94 1010.6
20260904083545 59 0 0.0 0.0 0.01 0.03 0.01 93 1010.7
20260904083103 59 0 0.0 0.0 0.00 0.02 0.00 93 1010.6
20260904082544 59 0 0.0 0.0 0.00 0.02 0.00 93 1010.7
20260904082040 59 0 0.0 0.0 0.00 0.02 0.00 92 1010.6
20260904081636 60 0 0.0 0.0 0.00 0.02 0.00 93 1010.6
20260904081041 60 0 0.0 0.0 0.00 0.02 0.00 93 1010.6
20260904080547 59 0 0.0 0.0 0.00 0.02 0.00 93 1010.6
20260904080101 60 0 0.0 0.0 0.00 0.02 0.00 93 1010.5
20260904075549 60 0 0.0 0.0 0.00 0.05 0.00 93 1010.6
20260904075046 60 0 0.0 0.0 0.00 0.05 0.00 93 1010.4
20260904074608 60 0 0.0 1.0 0.00 0.05 0.00 93 1010.5
20260904074047 60 0 0.0 1.0 0.00 0.05 0.00 92 1010.6
20260904073545 60 0 0.0 1.0 0.00 0.05 0.00 91 1010.6
20260904073108 60 0 0.0 1.0 0.00 0.05 0.00 92 1010.5
20260904072544 60 0 0.0 1.0 0.00 0.05 0.00 92 1010.5
20260904072045 60 0 0.0 0.0 0.00 0.05 0.00 92 1010.5
20260904071602 59 0 0.0 0.0 0.00 0.05 0.00 93 1010.6
20260904071045 60 0 0.0 0.0 0.00 0.05 0.00 94 1010.6
20260904070545 60 0 0.0 0.0 0.00 0.05 0.00 94 1010.7
20260904070122 60 0 0.0 0.0 0.00 0.05 0.00 95 1010.7
20260904065544 60 0 0.0 0.0 0.00 0.05 0.00 95 1010.8
20260904065044 60 0 0.0 0.0 0.00 0.05 0.00 95 1010.8
20260904064559 60 0 0.0 0.0 0.00 0.05 0.00 95 1010.8
20260904064044 60 0 0.0 0.0 0.00 0.05 0.00 95 1011.0
20260904063545 60 0 0.0 0.0 0.00 0.05 0.00 94 1010.9
20260904063101 60 0 0.0 0.0 0.00 0.05 0.00 94 1010.9
20260904062545 60 0 0.0 0.0 0.00 0.05 0.00 93 1011.1
20260904062044 60 0 0.0 0.0 0.00 0.05 0.00 93 1011.2
20260904061604 60 0 0.0 0.0 0.00 0.05 0.00 94 1011.1
20260904061045 60 0 0.0 0.0 0.00 0.05 0.00 94 1011.1
20260904060547 60 0 0.0 0.0 0.00 0.05 0.00 94 1011.3
20260904060106 60 0 0.0 0.0 0.00 0.05 0.00 94 1011.4
20260904055544 60 0 0.0 0.0 0.00 0.21 0.00 93 1011.3
20260904055048 60 0 0.0 0.0 0.00 0.21 0.00 93 1011.4
20260904054607 60 0 0.0 1.0 0.00 0.21 0.00 94 1011.3
20260904054045 60 0 0.0 1.0 0.00 0.21 0.00 94 1011.3
20260904053544 60 0 0.0 1.0 0.00 0.21 0.00 94 1011.4
20260904053104 60 0 0.0 0.0 0.00 0.21 0.00 95 1011.5
20260904052545 60 0 0.0 0.0 0.00 0.21 0.00 95 1011.5
20260904052045 60 0 0.0 1.0 0.00 0.21 0.00 94 1011.5
20260904051558 60 0 0.0 1.0 0.00 0.21 0.00 94 1011.6
20260904051044 60 0 0.0 0.0 0.00 0.21 0.00 93 1011.6
20260904050547 60 0 0.0 0.0 0.00 0.21 0.00 95 1011.6
20260904050105 60 0 0.0 0.0 0.00 0.21 0.00 94 1011.6
20260904045541 60 0 0.0 0.0 0.00 0.21 0.00 93 1011.6
20260904045047 60 0 0.0 0.0 0.00 0.21 0.00 94 1011.6
20260904044603 61 0 0.0 0.0 0.00 0.21 0.00 94 1011.7
20260904044043 60 0 0.0 1.0 0.00 0.21 0.00 94 1011.8
20260904043544 60 0 0.0 1.0 0.00 0.21 0.00 94 1011.8
20260904043112 60 0 0.0 0.0 0.00 0.21 0.00 94 1011.9
20260904042545 60 0 0.0 0.0 0.00 0.21 0.00 95 1011.9
20260904042046 60 0 0.0 0.0 0.00 0.21 0.00 95 1012.1
20260904041554 60 0 0.0 0.0 0.00 0.21 0.00 94 1012.1
20260904041044 60 0 0.0 0.0 0.00 0.21 0.00 94 1012.1
20260904040544 60 0 0.0 0.0 0.00 0.21 0.00 95 1012.1
20260904040058 61 0 0.0 0.0 0.00 0.21 0.00 95 1012.1
20260904035543 60 0 0.0 0.0 0.00 0.21 0.21 95 1012.1
20260904035043 60 0 0.0 0.0 0.00 0.21 0.21 95 1012.2
20260904034558 60 0 0.0 0.0 0.00 0.21 0.21 95 1012.1
20260904034044 61 0 0.0 0.0 0.00 0.21 0.21 96 1012.2
20260904033545 61 0 0.0 1.0 0.00 0.21 0.21 95 1012.1
20260904033057 61 0 0.0 1.0 0.00 0.21 0.21 95 1012.1
20260904032544 61 0 0.0 0.0 0.00 0.21 0.21 95 1012.1
20260904032044 61 0 0.0 0.0 0.00 0.21 0.21 95 1012.0
20260904031558 61 0 0.0 0.0 0.00 0.21 0.21 95 1012.1
20260904031044 61 0 0.0 0.0 0.00 0.21 0.21 95 1012.2
20260904030544 61 0 0.0 1.0 0.00 0.21 0.21 94 1012.2
20260904030100 61 0 0.0 1.0 0.00 0.21 0.21 94 1012.2
20260904025544 61 0 0.0 1.0 0.00 0.21 0.21 94 1012.2
20260904025041 61 0 0.0 1.0 0.00 0.21 0.21 93 1012.2
20260904024605 61 0 0.0 1.0 0.00 0.21 0.21 92 1012.2
20260904024045 61 0 0.0 1.0 0.00 0.21 0.21 93 1012.2
20260904023544 61 0 0.0 1.0 0.00 0.21 0.21 93 1012.3
20260904023058 62 95 0.0 1.0 0.00 0.21 0.21 93 1012.2
20260904022544 62 95 0.0 1.0 0.00 0.21 0.21 92 1012.3
20260904022044 62 0 0.0 2.0 0.00 0.21 0.21 92 1012.3
20260904021557 62 95 0.0 2.0 0.00 0.21 0.21 92 1012.3
20260904021044 61 95 1.0 2.0 0.00 0.21 0.21 91 1012.3
20260904020544 61 95 0.0 1.0 0.00 0.21 0.21 93 1012.3
20260904020101 61 0 0.0 0.0 0.00 0.21 0.21 94 1012.3
20260904015540 61 0 0.0 0.0 0.00 0.21 0.21 93 1012.4
20260904015044 61 0 0.0 0.0 0.00 0.21 0.21 94 1012.7
20260904014642 62 0 0.0 0.0 0.00 0.21 0.21 94 1012.5
20260904014045 62 0 0.0 0.0 0.00 0.21 0.21 93 1012.5
20260904013547 62 0 0.0 1.0 0.00 0.21 0.21 93 1012.5
20260904013059 62 0 0.0 1.0 0.00 0.21 0.21 92 1012.4
20260904012545 62 94 0.0 1.0 0.00 0.21 0.21 92 1012.3
20260904012044 62 0 0.0 1.0 0.00 0.21 0.21 92 1012.4
20260904011602 62 0 0.0 1.0 0.00 0.21 0.21 92 1012.3
20260904011049 62 94 0.0 2.0 0.00 0.21 0.21 92 1012.3
20260904010545 62 94 0.0 2.0 0.00 0.21 0.21 93 1012.3
20260904010100 62 0 0.0 2.0 0.00 0.21 0.21 94 1012.2
20260904005544 62 0 0.0 2.0 0.00 0.21 0.21 93 1012.2
20260904005046 62 0 0.0 2.0 0.00 0.21 0.21 94 1012.2
20260904004604 62 94 0.0 2.0 0.00 0.21 0.21 95 1012.1
20260904004044 62 98 0.0 1.0 0.00 0.21 0.21 95 1012.0
20260904003544 62 0 0.0 1.0 0.00 0.21 0.21 95 1012.1
20260904003100 62 0 0.0 1.0 0.00 0.21 0.21 96 1012.1
20260904002544 62 0 0.0 1.0 0.00 0.21 0.21 95 1012.0
20260904002044 62 0 0.0 1.0 0.00 0.21 0.21 96 1011.8
20260904001602 63 0 0.0 1.0 0.00 0.21 0.21 96 1011.6
20260904001044 63 0 0.0 1.0 0.00 0.21 0.21 96 1011.6
20260904000546 63 0 0.0 1.0 0.00 0.21 0.21 96 1011.6
20260904000140 63 98 0.0 0.0 0.00 0.21 0.21 96 1011.4
20260903235545 63 0 0.0 0.0 0.00 0.21 0.21 95 1011.6
20260903235044 63 0 0.0 0.0 0.00 0.21 0.21 95 1011.6
20260903234558 63 0 0.0 0.0 0.00 0.21 0.21 95 1011.4
20260903234045 64 0 0.0 1.0 0.00 0.21 0.21 95 1011.2
20260903233545 64 0 0.0 1.0 0.00 0.21 0.21 95 1011.2
20260903233057 64 0 0.0 0.0 0.00 0.21 0.21 95 1011.3
20260903232544 64 0 0.0 1.0 0.00 0.21 0.21 94 1011.3
20260903232048 65 0 0.0 1.0 0.00 0.21 0.21 94 1011.2
20260903231618 65 0 0.0 3.0 0.00 0.21 0.21 94 1011.2
20260903231044 65 0 0.0 3.0 0.00 0.21 0.21 93 1011.0
20260903230544 65 0 0.0 1.0 0.00 0.21 0.21 95 1011.1
20260903230105 66 0 0.0 1.0 0.00 0.21 0.21 95 1011.2
20260903225545 66 0 0.0 0.0 0.00 0.21 0.21 95 1011.3
20260903225044 66 0 0.0 0.0 0.00 0.21 0.21 95 1011.2
20260903224602 66 0 0.0 1.0 0.00 0.21 0.21 95 1011.3
20260903224044 66 0 0.0 1.0 0.00 0.21 0.21 95 1011.3
20260903223545 66 0 0.0 1.0 0.00 0.21 0.21 95 1011.3
20260903223053 66 0 0.0 1.0 0.00 0.21 0.21 95 1011.5
20260903222551 66 0 0.0 1.0 0.00 0.21 0.21 96 1011.4
20260903222045 66 0 0.0 1.0 0.00 0.21 0.21 95 1011.3
20260903221559 66 0 0.0 1.0 0.00 0.21 0.21 96 1011.3
20260903221044 65 354 0.0 1.0 0.00 0.21 0.21 96 1011.5
20260903220545 65 0 0.0 1.0 0.00 0.21 0.21 95 1011.5
20260903220112 65 0 0.0 1.0 0.00 0.21 0.21 95 1011.6
20260903215545 65 356 0.0 1.0 0.00 0.21 0.21 95 1011.6
20260903215046 65 0 0.0 1.0 0.00 0.21 0.21 95 1011.7
20260903214602 65 0 0.0 1.0 0.00 0.21 0.21 95 1011.5
20260903214045 65 0 0.0 1.0 0.00 0.21 0.21 94 1011.5
20260903213545 66 0 0.0 1.0 0.00 0.21 0.21 94 1011.5
20260903213057 66 0 0.0 1.0 0.00 0.21 0.21 94 1011.6
20260903212545 66 0 0.0 1.0 0.00 0.21 0.21 94 1011.7
20260903212045 66 0 0.0 1.0 0.00 0.21 0.21 94 1011.6
20260903211559 67 0 0.0 1.0 0.00 0.21 0.21 95 1011.7
20260903211044 67 0 0.0 1.0 0.00 0.21 0.21 95 1011.6
20260903210544 67 340 0.0 0.0 0.00 0.21 0.21 95 1011.7
20260903210055 67 0 0.0 1.0 0.00 0.21 0.21 94 1011.7
20260903205544 67 0 0.0 1.0 0.00 0.21 0.21 94 1011.6
20260903205045 67 0 0.0 0.0 0.00 0.21 0.21 94 1011.5
20260903204552 67 0 0.0 1.0 0.00 0.21 0.21 94 1011.5
20260903204044 67 0 0.0 1.0 0.00 0.21 0.21 94 1011.5
20260903203548 68 0 0.0 2.0 0.00 0.21 0.21 93 1011.4
20260903203057 68 0 0.0 2.0 0.00 0.21 0.21 93 1011.5
20260903202544 68 0 0.0 1.0 0.00 0.21 0.21 92 1011.5
20260903202045 69 0 0.0 1.0 0.00 0.21 0.21 92 1011.5
20260903201601 69 0 0.0 1.0 0.00 0.21 0.21 91 1011.5
20260903201044 70 0 0.0 0.0 0.00 0.21 0.21 90 1011.6
20260903200546 71 0 0.0 0.0 0.00 0.21 0.21 90 1011.6
20260903200055 72 0 0.0 0.0 0.00 0.21 0.21 89 1011.6
20260903195545 73 0 0.0 0.0 0.00 0.21 0.21 87 1011.6
20260903195045 74 0 0.0 0.0 0.00 0.21 0.21 86 1011.5
20260903194559 75 0 0.0 0.0 0.00 0.21 0.21 86 1011.6
20260903194044 75 0 0.0 1.0 0.00 0.21 0.21 85 1011.6
20260903193547 75 0 0.0 1.0 0.00 0.21 0.21 86 1011.7
20260903193057 75 0 0.0 1.0 0.00 0.21 0.21 87 1011.6
20260903192545 74 0 0.0 1.0 0.00 0.21 0.21 90 1011.7
20260903192047 74 0 0.0 1.0 0.00 0.21 0.21 87 1011.8
20260903191558 74 0 0.0 1.0 0.00 0.21 0.21 87 1011.7
20260903191044 74 0 0.0 3.0 0.00 0.21 0.21 89 1011.7
20260903190545 73 321 0.0 3.0 0.00 0.21 0.21 90 1011.9
20260903185545 71 0 0.0 0.0 0.00 0.21 0.21 89 1011.8
20260903185045 70 320 0.0 0.0 0.00 0.21 0.21 91 1011.8
20260903184602 70 320 0.0 0.0 0.00 0.21 0.21 91 1011.9
20260903184045 70 0 0.0 0.0 0.00 0.21 0.21 91 1011.9
20260903183544 70 0 0.0 1.0 0.00 0.21 0.21 90 1012.0
20260903183101 70 0 0.0 1.0 0.00 0.21 0.21 89 1012.0
20260903182545 70 0 0.0 1.0 0.00 0.21 0.21 90 1012.0
20260903182044 70 321 0.0 1.0 0.00 0.21 0.21 91 1012.1
20260903181558 70 320 0.0 1.0 0.00 0.21 0.21 88 1012.2
20260903181047 70 0 0.0 0.0 0.00 0.21 0.21 91 1012.2
20260903180544 70 0 0.0 0.0 0.00 0.21 0.21 90 1012.1
20260903180105 69 0 0.0 1.0 0.00 0.21 0.21 91 1012.2
20260903175544 69 323 0.0 1.0 0.00 0.21 0.21 89 1012.3
20260903175045 69 0 0.0 1.0 0.00 0.21 0.21 93 1012.3
20260903174558 68 0 0.0 2.0 0.00 0.21 0.21 93 1012.4
20260903174045 67 324 0.0 2.0 0.00 0.21 0.21 92 1012.4
20260903173544 67 314 0.0 2.0 0.00 0.21 0.21 93 1012.4
20260903173059 67 0 0.0 2.0 0.00 0.21 0.21 92 1012.4
20260903172545 67 314 0.0 1.0 0.00 0.21 0.21 91 1012.4
20260903172045 67 0 0.0 1.0 0.00 0.21 0.21 95 1012.6
20260903171607 66 311 0.0 2.0 0.00 0.21 0.21 92 1012.7
20260903171045 66 0 0.0 2.0 0.00 0.21 0.21 94 1012.7
20260903170545 65 307 0.0 2.0 0.00 0.21 0.21 92 1012.6
20260903170109 65 309 1.0 2.0 0.00 0.21 0.21 92 1012.7
20260903165545 65 309 0.0 2.0 0.00 0.21 0.21 95 1012.7
20260903165048 65 325 0.0 4.0 0.00 0.21 0.21 95 1012.7
20260903164604 64 320 0.0 4.0 0.00 0.21 0.21 96 1012.7
20260903164046 64 320 0.0 4.0 0.00 0.21 0.21 95 1012.7
20260903163544 63 328 0.0 3.0 0.00 0.21 0.21 95 1012.8
20260903163109 63 329 0.0 3.0 0.00 0.21 0.21 95 1012.9
20260903162544 63 0 0.0 1.0 0.00 0.21 0.21 96 1013.0
20260903162045 63 0 0.0 1.0 0.00 0.21 0.21 96 1013.0
20260903161605 63 0 0.0 1.0 0.00 0.21 0.21 96 1013.0
20260903161045 62 0 0.0 1.0 0.00 0.21 0.21 96 1013.0
20260903160548 62 343 0.0 1.0 0.00 0.21 0.21 96 1013.1
20260903160104 62 0 0.0 1.0 0.00 0.21 0.21 97 1013.3
20260903155545 62 348 0.0 1.0 0.00 0.21 0.21 97 1013.3
20260903155044 61 0 0.0 1.0 0.00 0.21 0.21 97 1013.3
20260903154608 61 0 0.0 1.0 0.00 0.21 0.21 97 1013.5
20260903154045 61 0 0.0 1.0 0.00 0.21 0.21 97 1013.6
20260903153544 61 0 0.0 3.0 0.00 0.21 0.21 97 1013.4
20260903153110 60 360 0.0 3.0 0.00 0.21 0.21 97 1013.5
20260903152548 61 246 0.0 2.0 0.00 0.21 0.21 97 1013.6
20260903152044 60 245 0.0 2.0 0.00 0.21 0.21 97 1013.6
20260903151603 60 269 0.0 2.0 0.00 0.21 0.21 97 1013.8
20260903151047 60 0 0.0 1.0 0.00 0.21 0.21 97 1013.8
20260903150545 60 0 0.0 2.0 0.00 0.21 0.21 97 1013.9
20260903150119 60 0 0.0 2.0 0.00 0.21 0.21 97 1014.0
20260903145545 60 248 0.0 2.0 0.00 0.21 0.21 98 1014.0
20260903145045 60 0 0.0 1.0 0.00 0.21 0.21 98 1013.8
20260903144602 60 0 0.0 1.0 0.00 0.21 0.21 98 1014.0
20260903144045 59 0 0.0 2.0 0.00 0.21 0.21 98 1014.1
20260903143544 59 0 0.0 2.0 0.00 0.21 0.21 98 1014.3
20260903143101 59 244 0.0 1.0 0.00 0.21 0.21 98 1014.3
20260903142545 59 236 0.0 1.0 0.00 0.21 0.21 98 1014.2
20260903142045 59 0 0.0 1.0 0.00 0.21 0.21 98 1014.0
20260903141605 58 0 0.0 1.0 0.00 0.21 0.21 98 1014.1
20260903141045 58 0 0.0 1.0 0.00 0.21 0.21 98 1014.3
20260903140544 59 0 0.0 0.0 0.00 0.21 0.21 98 1014.3
20260903140107 58 0 0.0 0.0 0.00 0.21 0.21 98 1014.3
20260903135546 58 0 0.0 0.0 0.00 0.21 0.21 98 1014.3
20260903135048 58 0 0.0 0.0 0.00 0.21 0.21 98 1014.3
20260903134600 58 0 0.0 1.0 0.00 0.21 0.21 98 1014.2
20260903134049 58 0 0.0 1.0 0.00 0.21 0.21 98 1014.2
20260903133545 58 0 0.0 1.0 0.00 0.21 0.21 98 1014.1
20260903133107 58 0 0.0 1.0 0.00 0.21 0.21 98 1014.1
20260903132544 58 0 0.0 0.0 0.00 0.21 0.21 98 1014.1
20260903132044 58 0 0.0 0.0 0.00 0.21 0.21 98 1014.0
20260903131559 58 0 0.0 0.0 0.00 0.21 0.21 98 1014.2
20260903131046 58 0 0.0 1.0 0.00 0.21 0.21 98 1014.1
20260903130547 58 0 0.0 1.0 0.00 0.21 0.21 98 1014.1
20260903130059 58 0 0.0 1.0 0.00 0.21 0.21 98 1014.1
20260903125545 58 0 0.0 1.0 0.00 0.21 0.21 98 1014.1
20260903125045 58 288 0.0 0.0 0.00 0.21 0.21 98 1014.1
20260903124606 58 0 0.0 0.0 0.00 0.21 0.21 98 1014.0
20260903124045 58 0 0.0 1.0 0.01 0.21 0.21 98 1014.1